| time (UTC) | temp C | wind direction | speed KPH | gust KPH | rain 1hr cm | rain 24hr cm | rain mn cm | humidity % | barometer mb |
| 20260507085319 | 15 | 321 | 1.6 | 16.1 | 0.00 | 0.30 | 0.28 | 100 | 1012.5 |
| 20260507084819 | 15 | 321 | 3.2 | 20.9 | 0.00 | 0.30 | 0.28 | 100 | 1012.3 |
| 20260507084319 | 15 | 320 | 6.4 | 20.9 | 0.00 | 0.30 | 0.28 | 100 | 1012.3 |
| 20260507083819 | 15 | 319 | 6.4 | 20.9 | 0.00 | 0.30 | 0.28 | 100 | 1012.3 |
| 20260507083319 | 15 | 319 | 6.4 | 20.9 | 0.00 | 0.30 | 0.28 | 100 | 1012.3 |
| 20260507082821 | 15 | 293 | 1.6 | 20.9 | 0.00 | 0.30 | 0.28 | 100 | 1012.3 |
| 20260507082319 | 15 | 298 | 4.8 | 20.9 | 0.00 | 0.30 | 0.28 | 100 | 1012.5 |
| 20260507081819 | 15 | 317 | 1.6 | 19.3 | 0.00 | 0.30 | 0.28 | 100 | 1012.4 |
| 20260507081319 | 15 | 305 | 4.8 | 22.5 | 0.00 | 0.30 | 0.28 | 100 | 1012.3 |
| 20260507080819 | 15 | 279 | 6.4 | 22.5 | 0.00 | 0.30 | 0.28 | 100 | 1012.0 |
| 20260507080319 | 15 | 266 | 3.2 | 17.7 | 0.00 | 0.30 | 0.28 | 100 | 1012.5 |
| 20260507075821 | 15 | 276 | 1.6 | 20.9 | 0.00 | 0.30 | 0.28 | 100 | 1012.3 |
| 20260507075319 | 15 | 277 | 4.8 | 22.5 | 0.00 | 0.30 | 0.28 | 100 | 1012.2 |
| 20260507074820 | 15 | 287 | 8.0 | 24.1 | 0.00 | 0.30 | 0.28 | 100 | 1012.3 |
| 20260507074319 | 15 | 285 | 3.2 | 24.1 | 0.00 | 0.30 | 0.28 | 100 | 1012.3 |
| 20260507073819 | 15 | 271 | 3.2 | 19.3 | 0.00 | 0.30 | 0.28 | 100 | 1012.4 |
| 20260507073319 | 15 | 219 | 4.8 | 19.3 | 0.00 | 0.30 | 0.28 | 100 | 1012.1 |
| 20260507072822 | 15 | 210 | 3.2 | 14.5 | 0.00 | 0.30 | 0.28 | 100 | 1012.2 |
| 20260507071821 | 15 | 198 | 4.8 | 16.1 | 0.00 | 0.30 | 0.28 | 100 | 1012.2 |
| 20260507071319 | 15 | 207 | 1.6 | 12.9 | 0.00 | 0.30 | 0.28 | 100 | 1012.4 |
| 20260507070818 | 15 | 257 | 1.6 | 17.7 | 0.00 | 0.30 | 0.28 | 100 | 1012.5 |
| 20260507070319 | 15 | 277 | 1.6 | 17.7 | 0.00 | 0.30 | 0.28 | 100 | 1012.4 |
| 20260507065821 | 15 | 258 | 1.6 | 17.7 | 0.00 | 0.30 | 0.28 | 100 | 1012.6 |
| 20260507065319 | 15 | 0 | 0.0 | 17.7 | 0.00 | 0.30 | 0.28 | 100 | 1012.8 |
| 20260507064819 | 15 | 229 | 4.8 | 20.9 | 0.00 | 0.30 | 0.28 | 100 | 1012.7 |
| 20260507064320 | 15 | 206 | 4.8 | 25.7 | 0.00 | 0.30 | 0.28 | 100 | 1012.3 |
| 20260507063819 | 15 | 207 | 4.8 | 29.0 | 0.00 | 0.30 | 0.28 | 100 | 1012.7 |
| 20260507063318 | 15 | 204 | 11.3 | 33.8 | 0.00 | 0.30 | 0.28 | 100 | 1012.6 |
| 20260507062821 | 15 | 202 | 16.1 | 33.8 | 0.00 | 0.30 | 0.28 | 100 | 1012.5 |
| 20260507062319 | 15 | 197 | 9.7 | 29.0 | 0.00 | 0.30 | 0.28 | 100 | 1012.6 |
| 20260507061820 | 15 | 201 | 11.3 | 30.6 | 0.00 | 0.30 | 0.28 | 99 | 1012.4 |
| 20260507061319 | 15 | 194 | 14.5 | 32.2 | 0.00 | 0.30 | 0.28 | 100 | 1012.6 |
| 20260507060819 | 15 | 190 | 16.1 | 35.4 | 0.00 | 0.30 | 0.28 | 100 | 1012.7 |
| 20260507060319 | 15 | 192 | 19.3 | 37.0 | 0.00 | 0.30 | 0.28 | 100 | 1012.7 |
| 20260507055819 | 15 | 193 | 17.7 | 37.0 | 0.03 | 0.30 | 0.28 | 100 | 1013.2 |
| 20260507055319 | 16 | 197 | 9.7 | 20.9 | 0.03 | 0.30 | 0.28 | 100 | 1013.6 |
| 20260507054820 | 16 | 220 | 3.2 | 20.9 | 0.03 | 0.30 | 0.28 | 100 | 1014.0 |
| 20260507054318 | 16 | 240 | 1.6 | 14.5 | 0.03 | 0.30 | 0.28 | 100 | 1014.1 |
| 20260507053819 | 16 | 256 | 1.6 | 12.9 | 0.03 | 0.30 | 0.28 | 99 | 1014.0 |
| 20260507053319 | 16 | 274 | 1.6 | 9.7 | 0.03 | 0.30 | 0.28 | 100 | 1014.1 |
| 20260507052818 | 16 | 0 | 0.0 | 12.9 | 0.03 | 0.30 | 0.28 | 99 | 1014.4 |
| 20260507052318 | 16 | 231 | 1.6 | 19.3 | 0.03 | 0.30 | 0.28 | 99 | 1014.5 |
| 20260507051818 | 16 | 236 | 3.2 | 19.3 | 0.03 | 0.30 | 0.28 | 99 | 1014.7 |
| 20260507051318 | 16 | 201 | 1.6 | 12.9 | 0.03 | 0.30 | 0.28 | 100 | 1014.8 |
| 20260507050818 | 16 | 192 | 1.6 | 9.7 | 0.03 | 0.30 | 0.28 | 100 | 1014.7 |
| 20260507050319 | 16 | 0 | 0.0 | 9.7 | 0.03 | 0.30 | 0.28 | 100 | 1014.8 |
| 20260507045819 | 16 | 197 | 1.6 | 9.7 | 0.00 | 0.28 | 0.25 | 99 | 1014.8 |
| 20260507045319 | 16 | 211 | 1.6 | 12.9 | 0.00 | 0.28 | 0.25 | 99 | 1015.2 |
| 20260507044820 | 16 | 207 | 1.6 | 14.5 | 0.00 | 0.28 | 0.25 | 99 | 1014.9 |
| 20260507044319 | 16 | 209 | 4.8 | 16.1 | 0.00 | 0.28 | 0.25 | 99 | 1014.5 |
| 20260507043819 | 16 | 233 | 1.6 | 16.1 | 0.00 | 0.28 | 0.25 | 99 | 1014.5 |
| 20260507043318 | 16 | 0 | 0.0 | 12.9 | 0.00 | 0.28 | 0.25 | 99 | 1014.5 |
| 20260507042824 | 16 | 0 | 0.0 | 11.3 | 0.00 | 0.28 | 0.25 | 99 | 1014.6 |
| 20260507041858 | 16 | 211 | 1.6 | 16.1 | 0.00 | 0.28 | 0.25 | 99 | 1014.1 |
| 20260507041358 | 16 | 214 | 3.2 | 16.1 | 0.03 | 0.28 | 0.25 | 99 | 1014.1 |
| 20260507040858 | 16 | 203 | 3.2 | 14.5 | 0.05 | 0.28 | 0.25 | 100 | 1014.4 |
| 20260507040023 | 16 | 206 | 4.8 | 16.1 | 0.05 | 0.28 | 0.25 | 99 | 1014.2 |
| 20260507035523 | 16 | 209 | 4.8 | 12.9 | 0.08 | 0.28 | 0.25 | 99 | 1014.3 |
| 20260507035023 | 16 | 207 | 1.6 | 14.5 | 0.10 | 0.28 | 0.25 | 99 | 1014.1 |
| 20260507034523 | 16 | 208 | 4.8 | 14.5 | 0.10 | 0.28 | 0.25 | 99 | 1014.0 |
| 20260507034023 | 16 | 203 | 3.2 | 14.5 | 0.10 | 0.28 | 0.25 | 99 | 1013.8 |
| 20260507033535 | 16 | 194 | 6.4 | 14.5 | 0.13 | 0.28 | 0.25 | 99 | 1013.7 |
| 20260507033023 | 16 | 208 | 6.4 | 17.7 | 0.13 | 0.28 | 0.25 | 99 | 1013.8 |
| 20260507032523 | 16 | 189 | 8.0 | 27.4 | 0.13 | 0.28 | 0.25 | 99 | 1013.8 |
| 20260507032024 | 16 | 189 | 8.0 | 32.2 | 0.13 | 0.28 | 0.25 | 99 | 1013.1 |
| 20260507031523 | 16 | 161 | 17.7 | 32.2 | 0.10 | 0.25 | 0.23 | 99 | 1013.5 |
| 20260507031023 | 16 | 0 | 0.0 | 9.7 | 0.08 | 0.23 | 0.20 | 99 | 1015.4 |
| 20260507030523 | 16 | 0 | 0.0 | 12.9 | 0.08 | 0.23 | 0.20 | 99 | 1015.3 |
| 20260507030023 | 16 | 235 | 1.6 | 12.9 | 0.10 | 0.23 | 0.20 | 99 | 1015.1 |
| 20260507025523 | 17 | 0 | 0.0 | 17.7 | 0.08 | 0.20 | 0.18 | 99 | 1015.1 |
| 20260507025023 | 17 | 0 | 0.0 | 17.7 | 0.05 | 0.18 | 0.15 | 99 | 1015.3 |
| 20260507024523 | 17 | 247 | 3.2 | 16.1 | 0.05 | 0.18 | 0.15 | 99 | 1015.3 |
| 20260507024023 | 17 | 207 | 1.6 | 16.1 | 0.08 | 0.18 | 0.15 | 99 | 1015.4 |
| 20260507023524 | 17 | 196 | 3.2 | 16.1 | 0.05 | 0.15 | 0.13 | 99 | 1015.3 |
| 20260507023023 | 17 | 197 | 3.2 | 25.7 | 0.05 | 0.15 | 0.13 | 99 | 1015.1 |
| 20260507022523 | 17 | 187 | 8.0 | 25.7 | 0.05 | 0.15 | 0.13 | 99 | 1014.7 |
| 20260507022023 | 17 | 189 | 4.8 | 24.1 | 0.05 | 0.15 | 0.13 | 99 | 1014.3 |
| 20260507021523 | 17 | 210 | 3.2 | 17.7 | 0.05 | 0.15 | 0.13 | 99 | 1014.2 |
| 20260507021023 | 17 | 208 | 8.0 | 17.7 | 0.05 | 0.15 | 0.13 | 99 | 1014.2 |
| 20260507020523 | 17 | 198 | 1.6 | 14.5 | 0.05 | 0.15 | 0.13 | 99 | 1014.2 |
| 20260507020023 | 17 | 200 | 3.2 | 14.5 | 0.03 | 0.13 | 0.10 | 99 | 1014.2 |
| 20260507015523 | 17 | 216 | 3.2 | 14.5 | 0.05 | 0.13 | 0.10 | 99 | 1014.4 |
| 20260507015023 | 17 | 218 | 1.6 | 19.3 | 0.05 | 0.13 | 0.10 | 99 | 1014.6 |
| 20260507014523 | 17 | 201 | 4.8 | 19.3 | 0.05 | 0.13 | 0.10 | 99 | 1014.4 |
| 20260507014023 | 16 | 193 | 4.8 | 19.3 | 0.03 | 0.10 | 0.08 | 99 | 1014.3 |
| 20260507013525 | 16 | 201 | 6.4 | 16.1 | 0.03 | 0.10 | 0.08 | 99 | 1014.1 |
| 20260507013023 | 16 | 196 | 4.8 | 14.5 | 0.03 | 0.10 | 0.08 | 99 | 1014.0 |
| 20260507012523 | 16 | 208 | 6.4 | 14.5 | 0.03 | 0.10 | 0.08 | 98 | 1014.1 |
| 20260507012023 | 16 | 202 | 8.0 | 16.1 | 0.03 | 0.10 | 0.08 | 98 | 1013.8 |
| 20260507011523 | 16 | 201 | 4.8 | 16.1 | 0.03 | 0.10 | 0.08 | 98 | 1013.8 |
| 20260507011024 | 16 | 189 | 6.4 | 14.5 | 0.03 | 0.10 | 0.08 | 98 | 1013.4 |
| 20260507010034 | 17 | 197 | 6.4 | 19.3 | 0.03 | 0.10 | 0.08 | 98 | 1013.8 |
| 20260507005536 | 16 | 202 | 6.4 | 14.5 | 0.00 | 0.08 | 0.05 | 97 | 1013.9 |
| 20260507005034 | 16 | 194 | 8.0 | 14.5 | 0.00 | 0.08 | 0.05 | 97 | 1014.0 |
| 20260507004534 | 17 | 202 | 4.8 | 16.1 | 0.00 | 0.08 | 0.05 | 97 | 1014.2 |
| 20260507004035 | 17 | 199 | 8.0 | 16.1 | 0.00 | 0.08 | 0.05 | 97 | 1014.0 |
| 20260507003534 | 17 | 202 | 6.4 | 17.7 | 0.00 | 0.08 | 0.05 | 96 | 1013.9 |
| 20260507003034 | 17 | 195 | 6.4 | 17.7 | 0.00 | 0.08 | 0.05 | 96 | 1014.0 |
| 20260507002534 | 17 | 198 | 4.8 | 14.5 | 0.00 | 0.08 | 0.05 | 96 | 1014.2 |
| 20260507002034 | 17 | 201 | 3.2 | 14.5 | 0.00 | 0.08 | 0.05 | 96 | 1014.1 |
| 20260507001534 | 17 | 202 | 6.4 | 16.1 | 0.00 | 0.08 | 0.05 | 95 | 1013.8 |
| 20260507001034 | 17 | 202 | 6.4 | 16.1 | 0.00 | 0.08 | 0.05 | 95 | 1013.9 |
| 20260507000535 | 17 | 202 | 6.4 | 14.5 | 0.00 | 0.08 | 0.05 | 95 | 1013.9 |
| 20260507000034 | 17 | 194 | 6.4 | 12.9 | 0.00 | 0.08 | 0.05 | 95 | 1013.7 |
| 20260506235534 | 17 | 192 | 6.4 | 14.5 | 0.00 | 0.08 | 0.05 | 95 | 1013.8 |
| 20260506235034 | 17 | 200 | 6.4 | 14.5 | 0.00 | 0.08 | 0.05 | 94 | 1013.9 |
| 20260506234535 | 17 | 196 | 4.8 | 11.3 | 0.00 | 0.08 | 0.05 | 94 | 1013.9 |
| 20260506233534 | 17 | 197 | 4.8 | 14.5 | 0.00 | 0.08 | 0.05 | 94 | 1013.8 |
| 20260506233033 | 17 | 197 | 3.2 | 17.7 | 0.00 | 0.08 | 0.05 | 94 | 1013.6 |
| 20260506232533 | 17 | 198 | 6.4 | 17.7 | 0.00 | 0.08 | 0.05 | 94 | 1013.2 |
| 20260506232034 | 17 | 195 | 9.7 | 17.7 | 0.00 | 0.08 | 0.05 | 94 | 1013.0 |
| 20260506231111 | 17 | 197 | 8.0 | 16.1 | 0.00 | 0.08 | 0.05 | 93 | 1013.5 |
| 20260506230612 | 17 | 202 | 6.4 | 16.1 | 0.00 | 0.08 | 0.05 | 93 | 1013.6 |
| 20260506230110 | 17 | 193 | 9.7 | 16.1 | 0.00 | 0.08 | 0.05 | 93 | 1013.3 |
| 20260506225611 | 17 | 191 | 8.0 | 14.5 | 0.00 | 0.08 | 0.05 | 93 | 1013.4 |
| 20260506225107 | 17 | 195 | 6.4 | 14.5 | 0.00 | 0.08 | 0.05 | 93 | 1013.5 |
| 20260506224439 | 17 | 200 | 1.6 | 12.9 | 0.00 | 0.08 | 0.05 | 92 | 1014.1 |
| 20260506223938 | 17 | 185 | 3.2 | 12.9 | 0.00 | 0.08 | 0.05 | 92 | 1014.1 |
| 20260506223438 | 17 | 197 | 1.6 | 12.9 | 0.00 | 0.08 | 0.05 | 92 | 1014.4 |
| 20260506222938 | 17 | 195 | 3.2 | 19.3 | 0.00 | 0.08 | 0.05 | 92 | 1014.6 |
| 20260506222438 | 17 | 192 | 6.4 | 22.5 | 0.00 | 0.08 | 0.05 | 92 | 1014.4 |
| 20260506221938 | 17 | 200 | 8.0 | 22.5 | 0.00 | 0.08 | 0.05 | 92 | 1014.4 |
| 20260506221438 | 17 | 199 | 8.0 | 17.7 | 0.00 | 0.08 | 0.05 | 92 | 1014.2 |
| 20260506220938 | 17 | 200 | 6.4 | 17.7 | 0.00 | 0.08 | 0.05 | 92 | 1014.2 |
| 20260506220438 | 17 | 197 | 6.4 | 12.9 | 0.00 | 0.08 | 0.05 | 92 | 1014.3 |
| 20260506215938 | 17 | 199 | 6.4 | 14.5 | 0.00 | 0.08 | 0.05 | 92 | 1014.0 |
| 20260506215438 | 17 | 195 | 4.8 | 14.5 | 0.00 | 0.08 | 0.05 | 92 | 1014.1 |
| 20260506214938 | 17 | 199 | 3.2 | 12.9 | 0.00 | 0.08 | 0.05 | 92 | 1014.1 |
| 20260506214438 | 17 | 193 | 1.6 | 11.3 | 0.00 | 0.08 | 0.05 | 91 | 1014.3 |
| 20260506213838 | 17 | 219 | 1.6 | 12.9 | 0.00 | 0.08 | 0.05 | 91 | 1014.3 |
| 20260506213337 | 17 | 0 | 0.0 | 8.0 | 0.00 | 0.08 | 0.05 | 92 | 1013.9 |
| 20260506212837 | 17 | 0 | 0.0 | 14.5 | 0.00 | 0.08 | 0.05 | 92 | 1013.8 |
| 20260506212337 | 17 | 196 | 4.8 | 16.1 | 0.00 | 0.08 | 0.05 | 91 | 1013.8 |
| 20260506211837 | 17 | 197 | 6.4 | 16.1 | 0.00 | 0.08 | 0.05 | 91 | 1013.4 |
| 20260506211337 | 17 | 199 | 4.8 | 14.5 | 0.00 | 0.08 | 0.05 | 91 | 1013.4 |
| 20260506210837 | 17 | 200 | 6.4 | 22.5 | 0.00 | 0.08 | 0.05 | 91 | 1013.2 |
| 20260506210337 | 17 | 199 | 4.8 | 24.1 | 0.00 | 0.08 | 0.05 | 91 | 1013.2 |
| 20260506205837 | 17 | 187 | 4.8 | 27.4 | 0.00 | 0.08 | 0.05 | 91 | 1013.5 |
| 20260506205337 | 17 | 196 | 8.0 | 27.4 | 0.00 | 0.08 | 0.05 | 91 | 1013.5 |
| 20260506204837 | 17 | 204 | 8.0 | 24.1 | 0.00 | 0.08 | 0.05 | 92 | 1013.7 |
| 20260506204337 | 17 | 201 | 8.0 | 24.1 | 0.00 | 0.08 | 0.05 | 92 | 1013.7 |
| 20260506203837 | 17 | 196 | 12.9 | 30.6 | 0.00 | 0.08 | 0.05 | 91 | 1013.7 |
| 20260506203337 | 17 | 192 | 12.9 | 30.6 | 0.00 | 0.08 | 0.05 | 91 | 1013.7 |
| 20260506202837 | 17 | 197 | 14.5 | 24.1 | 0.00 | 0.08 | 0.05 | 92 | 1013.8 |
| 20260506202115 | 17 | 202 | 9.7 | 25.7 | 0.00 | 0.08 | 0.05 | 92 | 1013.8 |
| 20260506201612 | 17 | 196 | 8.0 | 25.7 | 0.00 | 0.08 | 0.05 | 93 | 1014.0 |
| 20260506201112 | 17 | 193 | 11.3 | 25.7 | 0.00 | 0.08 | 0.05 | 92 | 1013.9 |
| 20260506200437 | 17 | 196 | 12.9 | 29.0 | 0.00 | 0.08 | 0.05 | 93 | 1014.0 |
| 20260506195938 | 17 | 199 | 8.0 | 35.4 | 0.00 | 0.08 | 0.05 | 93 | 1014.0 |
| 20260506195438 | 17 | 200 | 12.9 | 35.4 | 0.00 | 0.08 | 0.05 | 94 | 1014.0 |
| 20260506194937 | 17 | 198 | 8.0 | 25.7 | 0.00 | 0.08 | 0.05 | 94 | 1013.9 |
| 20260506194437 | 16 | 199 | 8.0 | 25.7 | 0.00 | 0.08 | 0.05 | 95 | 1013.8 |
| 20260506193937 | 16 | 198 | 9.7 | 19.3 | 0.00 | 0.08 | 0.05 | 95 | 1013.7 |
| 20260506193437 | 16 | 209 | 4.8 | 22.5 | 0.00 | 0.08 | 0.05 | 95 | 1013.7 |
| 20260506192937 | 16 | 200 | 6.4 | 38.6 | 0.00 | 0.08 | 0.05 | 95 | 1013.8 |
| 20260506192437 | 16 | 200 | 9.7 | 38.6 | 0.00 | 0.08 | 0.05 | 95 | 1014.1 |
| 20260506191937 | 16 | 200 | 12.9 | 33.8 | 0.00 | 0.08 | 0.05 | 96 | 1014.0 |
| 20260506191438 | 16 | 199 | 11.3 | 33.8 | 0.00 | 0.08 | 0.05 | 96 | 1013.9 |
| 20260506190937 | 16 | 191 | 8.0 | 30.6 | 0.00 | 0.08 | 0.05 | 96 | 1013.9 |
| 20260506190441 | 16 | 198 | 11.3 | 29.0 | 0.00 | 0.08 | 0.05 | 97 | 1013.9 |
| 20260506185537 | 15 | 194 | 20.9 | 48.3 | 0.00 | 0.08 | 0.05 | 97 | 1013.5 |
| 20260506185037 | 15 | 193 | 20.9 | 41.8 | 0.00 | 0.08 | 0.05 | 97 | 1013.6 |
| 20260506184537 | 15 | 185 | 20.9 | 46.7 | 0.00 | 0.08 | 0.05 | 98 | 1013.3 |
| 20260506184037 | 15 | 196 | 24.1 | 46.7 | 0.03 | 0.08 | 0.05 | 98 | 1013.2 |
| 20260506183539 | 15 | 192 | 22.5 | 40.2 | 0.03 | 0.08 | 0.05 | 98 | 1013.3 |
| 20260506183037 | 15 | 194 | 14.5 | 32.2 | 0.03 | 0.08 | 0.05 | 98 | 1013.5 |
| 20260506182539 | 15 | 189 | 16.1 | 25.7 | 0.03 | 0.08 | 0.05 | 98 | 1013.4 |
| 20260506182037 | 15 | 181 | 9.7 | 17.7 | 0.05 | 0.08 | 0.05 | 99 | 1013.8 |
| 20260506181537 | 15 | 187 | 3.2 | 16.1 | 0.05 | 0.08 | 0.05 | 98 | 1013.6 |
| 20260506181037 | 15 | 178 | 1.6 | 16.1 | 0.05 | 0.08 | 0.05 | 98 | 1013.4 |
| 20260506180537 | 15 | 177 | 8.0 | 16.1 | 0.05 | 0.08 | 0.05 | 98 | 1013.5 |
| 20260506180037 | 14 | 182 | 9.7 | 16.1 | 0.05 | 0.08 | 0.05 | 98 | 1013.7 |
| 20260506175537 | 14 | 183 | 3.2 | 12.9 | 0.05 | 0.08 | 0.05 | 98 | 1014.2 |
| 20260506174505 | 14 | 197 | 11.3 | 24.1 | 0.05 | 0.08 | 0.05 | 97 | 1015.0 |
| 20260506174007 | 14 | 194 | 9.7 | 17.7 | 0.03 | 0.05 | 0.03 | 97 | 1015.4 |
| 20260506173505 | 14 | 199 | 6.4 | 17.7 | 0.03 | 0.05 | 0.03 | 97 | 1015.5 |
| 20260506173005 | 14 | 182 | 4.8 | 17.7 | 0.03 | 0.05 | 0.03 | 96 | 1015.3 |
| 20260506172505 | 14 | 198 | 4.8 | 14.5 | 0.03 | 0.05 | 0.03 | 96 | 1015.6 |
| 20260506172005 | 14 | 201 | 4.8 | 12.9 | 0.00 | 0.03 | 0.00 | 95 | 1015.8 |
| 20260506171505 | 14 | 199 | 1.6 | 12.9 | 0.00 | 0.03 | 0.00 | 95 | 1015.8 |
| 20260506171006 | 14 | 0 | 0.0 | 12.9 | 0.00 | 0.03 | 0.00 | 94 | 1015.8 |
| 20260506170506 | 15 | 0 | 0.0 | 12.9 | 0.00 | 0.03 | 0.00 | 94 | 1015.8 |
| 20260506170005 | 15 | 186 | 4.8 | 16.1 | 0.00 | 0.03 | 0.00 | 94 | 1015.8 |
| 20260506165505 | 15 | 203 | 6.4 | 16.1 | 0.00 | 0.03 | 0.00 | 92 | 1015.7 |
| 20260506165006 | 15 | 189 | 6.4 | 19.3 | 0.00 | 0.03 | 0.00 | 92 | 1015.6 |
| 20260506164505 | 15 | 187 | 6.4 | 29.0 | 0.03 | 0.03 | 0.00 | 93 | 1015.7 |
| 20260506164005 | 14 | 195 | 12.9 | 29.0 | 0.03 | 0.03 | 0.00 | 93 | 1015.7 |
| 20260506163505 | 14 | 192 | 11.3 | 27.4 | 0.03 | 0.03 | 0.00 | 93 | 1015.6 |
| 20260506163006 | 14 | 193 | 6.4 | 27.4 | 0.03 | 0.03 | 0.00 | 94 | 1015.6 |
| 20260506162505 | 13 | 202 | 14.5 | 25.7 | 0.03 | 0.03 | 0.00 | 94 | 1015.6 |
| 20260506162005 | 13 | 197 | 12.9 | 24.1 | 0.03 | 0.03 | 0.00 | 94 | 1015.5 |
| 20260506161505 | 13 | 196 | 9.7 | 25.7 | 0.03 | 0.03 | 0.00 | 94 | 1015.4 |
| 20260506161005 | 13 | 196 | 12.9 | 29.0 | 0.03 | 0.03 | 0.00 | 94 | 1015.6 |
| 20260506160505 | 13 | 199 | 16.1 | 29.0 | 0.03 | 0.03 | 0.00 | 95 | 1015.4 |
| 20260506160005 | 13 | 197 | 9.7 | 20.9 | 0.03 | 0.03 | 0.03 | 94 | 1015.4 |
| 20260506155505 | 13 | 197 | 11.3 | 20.9 | 0.03 | 0.03 | 0.03 | 94 | 1015.4 |
| 20260506155005 | 13 | 199 | 11.3 | 24.1 | 0.03 | 0.03 | 0.03 | 94 | 1015.2 |
| 20260506154505 | 13 | 198 | 4.8 | 24.1 | 0.00 | 0.00 | 0.00 | 94 | 1015.1 |
| 20260506153448 | 13 | 195 | 8.0 | 17.7 | 0.00 | 0.00 | 0.00 | 94 | 1014.7 |
| 20260506152154 | 13 | 195 | 4.8 | 20.9 | 0.00 | 0.00 | 0.00 | 93 | 1014.8 |
| 20260506151654 | 13 | 194 | 3.2 | 20.9 | 0.00 | 0.00 | 0.00 | 93 | 1014.9 |
| 20260506151154 | 13 | 201 | 4.8 | 16.1 | 0.00 | 0.00 | 0.00 | 93 | 1014.9 |
| 20260506150654 | 13 | 200 | 3.2 | 12.9 | 0.00 | 0.00 | 0.00 | 93 | 1015.1 |
| 20260506150154 | 13 | 193 | 6.4 | 17.7 | 0.00 | 0.00 | 0.00 | 92 | 1014.9 |
| 20260506145654 | 14 | 189 | 3.2 | 25.7 | 0.00 | 0.00 | 0.00 | 91 | 1015.0 |
| 20260506145155 | 14 | 195 | 6.4 | 25.7 | 0.00 | 0.00 | 0.00 | 90 | 1015.0 |
| 20260506144726 | 14 | 193 | 6.4 | 24.1 | 0.00 | 0.00 | 0.00 | 89 | 1014.9 |
| 20260506144654 | 14 | 193 | 6.4 | 24.1 | 0.00 | 0.00 | 0.00 | 89 | 1014.9 |
| 20260506144155 | 14 | 201 | 14.5 | 22.5 | 0.00 | 0.00 | 0.00 | 89 | 1014.7 |
| 20260506143654 | 14 | 198 | 6.4 | 17.7 | 0.00 | 0.00 | 0.00 | 90 | 1014.7 |
| 20260506143155 | 14 | 195 | 11.3 | 17.7 | 0.00 | 0.00 | 0.00 | 90 | 1014.6 |
| 20260506142654 | 14 | 193 | 4.8 | 12.9 | 0.00 | 0.00 | 0.00 | 89 | 1014.6 |
| 20260506142155 | 14 | 192 | 3.2 | 11.3 | 0.00 | 0.00 | 0.00 | 88 | 1014.3 |
| 20260506141654 | 14 | 202 | 3.2 | 9.7 | 0.00 | 0.00 | 0.00 | 88 | 1014.7 |
| 20260506141155 | 14 | 0 | 0.0 | 12.9 | 0.00 | 0.00 | 0.00 | 88 | 1014.7 |
| 20260506140654 | 14 | 200 | 4.8 | 16.1 | 0.00 | 0.00 | 0.00 | 88 | 1014.9 |
| 20260506140155 | 14 | 199 | 3.2 | 16.1 | 0.00 | 0.00 | 0.00 | 89 | 1014.8 |
| 20260506135654 | 14 | 195 | 1.6 | 19.3 | 0.00 | 0.00 | 0.00 | 89 | 1014.7 |
| 20260506135155 | 14 | 193 | 8.0 | 19.3 | 0.00 | 0.00 | 0.00 | 89 | 1014.7 |
| 20260506134654 | 14 | 198 | 4.8 | 16.1 | 0.00 | 0.00 | 0.00 | 88 | 1014.8 |
| 20260506134021 | 14 | 195 | 6.4 | 17.7 | 0.00 | 0.00 | 0.00 | 88 | 1014.5 |
| 20260506133525 | 14 | 196 | 8.0 | 16.1 | 0.00 | 0.00 | 0.00 | 88 | 1014.4 |
| 20260506133021 | 14 | 183 | 4.8 | 20.9 | 0.00 | 0.00 | 0.00 | 88 | 1014.3 |
| 20260506132521 | 13 | 197 | 6.4 | 20.9 | 0.00 | 0.00 | 0.00 | 88 | 1014.4 |
| 20260506132021 | 13 | 203 | 11.3 | 32.2 | 0.00 | 0.00 | 0.00 | 89 | 1014.4 |
| 20260506131524 | 13 | 194 | 6.4 | 32.2 | 0.00 | 0.00 | 0.00 | 89 | 1014.5 |
| 20260506131025 | 13 | 190 | 11.3 | 32.2 | 0.00 | 0.00 | 0.00 | 89 | 1014.8 |
| 20260506130527 | 13 | 199 | 12.9 | 25.7 | 0.00 | 0.00 | 0.00 | 89 | 1014.7 |
| 20260506130021 | 13 | 195 | 3.2 | 19.3 | 0.00 | 0.00 | 0.00 | 89 | 1014.5 |
| 20260506125523 | 13 | 196 | 4.8 | 19.3 | 0.00 | 0.00 | 0.00 | 89 | 1014.7 |
| 20260506125021 | 13 | 191 | 4.8 | 14.5 | 0.00 | 0.00 | 0.00 | 90 | 1014.6 |
| 20260506124454 | 13 | 201 | 9.7 | 14.5 | 0.00 | 0.00 | 0.00 | 89 | 1014.6 |
| 20260506123955 | 13 | 198 | 3.2 | 16.1 | 0.00 | 0.00 | 0.00 | 90 | 1014.6 |
| 20260506123455 | 13 | 188 | 3.2 | 19.3 | 0.00 | 0.00 | 0.00 | 90 | 1014.4 |
| 20260506122955 | 13 | 191 | 1.6 | 24.1 | 0.00 | 0.00 | 0.00 | 90 | 1014.2 |
| 20260506122528 | 13 | 183 | 8.0 | 24.1 | 0.00 | 0.00 | 0.00 | 89 | 1014.0 |
| 20260506122454 | 13 | 183 | 8.0 | 24.1 | 0.00 | 0.00 | 0.00 | 89 | 1014.0 |
| 20260506121954 | 13 | 200 | 12.9 | 22.5 | 0.00 | 0.00 | 0.00 | 89 | 1014.3 |
| 20260506121454 | 13 | 197 | 11.3 | 20.9 | 0.00 | 0.00 | 0.00 | 89 | 1014.6 |
| 20260506120955 | 13 | 199 | 9.7 | 25.7 | 0.00 | 0.00 | 0.00 | 89 | 1015.0 |
| 20260506120454 | 13 | 199 | 11.3 | 27.4 | 0.00 | 0.00 | 0.00 | 89 | 1014.8 |
| 20260506115954 | 13 | 200 | 14.5 | 33.8 | 0.00 | 0.00 | 0.00 | 89 | 1014.8 |
| 20260506115454 | 13 | 198 | 17.7 | 33.8 | 0.00 | 0.00 | 0.00 | 89 | 1014.5 |
| 20260506114954 | 13 | 194 | 9.7 | 27.4 | 0.00 | 0.00 | 0.00 | 89 | 1014.5 |
| 20260506114455 | 13 | 196 | 14.5 | 30.6 | 0.00 | 0.00 | 0.00 | 89 | 1014.4 |
| 20260506113955 | 13 | 196 | 16.1 | 30.6 | 0.00 | 0.00 | 0.00 | 89 | 1014.3 |
| 20260506113454 | 13 | 201 | 17.7 | 30.6 | 0.00 | 0.00 | 0.00 | 89 | 1014.1 |
| 20260506112957 | 13 | 192 | 16.1 | 35.4 | 0.00 | 0.00 | 0.00 | 89 | 1013.9 |
| 20260506112455 | 13 | 196 | 17.7 | 40.2 | 0.00 | 0.00 | 0.00 | 89 | 1013.8 |
| 20260506111954 | 13 | 188 | 19.3 | 45.1 | 0.00 | 0.00 | 0.00 | 89 | 1014.0 |
| 20260506111535 | 13 | 194 | 22.5 | 45.1 | 0.00 | 0.00 | 0.00 | 89 | 1013.8 |
| 20260506111457 | 13 | 194 | 22.5 | 45.1 | 0.00 | 0.00 | 0.00 | 89 | 1013.8 |
| 20260506111036 | 13 | 186 | 22.5 | 35.4 | 0.00 | 0.00 | 0.00 | 89 | 1013.6 |
| 20260506110958 | 13 | 186 | 22.5 | 35.4 | 0.00 | 0.00 | 0.00 | 89 | 1013.6 |
| 20260506105649 | 13 | 198 | 14.5 | 35.4 | 0.00 | 0.00 | 0.00 | 88 | 1013.6 |
| 20260506105155 | 13 | 199 | 20.9 | 35.4 | 0.00 | 0.00 | 0.00 | 89 | 1013.8 |
| 20260506104650 | 13 | 200 | 17.7 | 33.8 | 0.00 | 0.00 | 0.00 | 88 | 1013.9 |
| 20260506104149 | 13 | 195 | 16.1 | 41.8 | 0.00 | 0.00 | 0.00 | 88 | 1013.8 |
| 20260506103649 | 13 | 198 | 20.9 | 41.8 | 0.00 | 0.00 | 0.00 | 88 | 1013.7 |
| 20260506103149 | 13 | 193 | 12.9 | 30.6 | 0.00 | 0.00 | 0.00 | 88 | 1013.9 |
| 20260506102649 | 13 | 201 | 14.5 | 30.6 | 0.00 | 0.00 | 0.00 | 88 | 1013.6 |
| 20260506102149 | 13 | 199 | 16.1 | 30.6 | 0.00 | 0.00 | 0.00 | 88 | 1013.4 |
| 20260506101649 | 13 | 196 | 17.7 | 30.6 | 0.00 | 0.00 | 0.00 | 88 | 1013.5 |
| 20260506101150 | 13 | 195 | 14.5 | 48.3 | 0.00 | 0.00 | 0.00 | 88 | 1013.5 |
| 20260506100649 | 13 | 194 | 17.7 | 48.3 | 0.00 | 0.00 | 0.00 | 88 | 1013.4 |
| 20260506100150 | 13 | 197 | 16.1 | 30.6 | 0.00 | 0.00 | 0.00 | 88 | 1013.6 |
| 20260506095649 | 13 | 199 | 16.1 | 33.8 | 0.00 | 0.00 | 0.00 | 88 | 1013.4 |
| 20260506095149 | 13 | 189 | 17.7 | 33.8 | 0.00 | 0.00 | 0.00 | 88 | 1013.5 |
| 20260506094649 | 13 | 198 | 19.3 | 33.8 | 0.00 | 0.00 | 0.00 | 88 | 1013.5 |
| 20260506094149 | 13 | 196 | 14.5 | 32.2 | 0.00 | 0.00 | 0.00 | 88 | 1013.6 |
| 20260506093649 | 13 | 191 | 12.9 | 32.2 | 0.00 | 0.00 | 0.00 | 87 | 1013.6 |
| 20260506093149 | 13 | 196 | 14.5 | 25.7 | 0.00 | 0.00 | 0.00 | 87 | 1013.5 |
| 20260506092649 | 13 | 197 | 14.5 | 25.7 | 0.00 | 0.00 | 0.00 | 87 | 1013.4 |
| 20260506092149 | 13 | 196 | 12.9 | 27.4 | 0.00 | 0.00 | 0.00 | 87 | 1013.6 |
| 20260506091649 | 13 | 198 | 14.5 | 27.4 | 0.00 | 0.00 | 0.00 | 87 | 1013.7 |
| 20260506091149 | 13 | 197 | 12.9 | 29.0 | 0.00 | 0.00 | 0.00 | 87 | 1013.6 |
| 20260506090650 | 13 | 196 | 12.9 | 29.0 | 0.00 | 0.00 | 0.00 | 87 | 1013.8 |
| 20260506090149 | 13 | 198 | 12.9 | 25.7 | 0.00 | 0.00 | 0.00 | 87 | 1013.7 |